Year,Month,Day,Hour,Minute,Value (Times are PST for temperature in C)
2010,07,10,00,00,15.70
2010,07,10,00,01,15.70
2010,07,10,00,02,15.70
2010,07,10,00,03,15.70
2010,07,10,00,04,15.70
2010,07,10,00,05,15.60
2010,07,10,00,06,15.60
2010,07,10,00,07,15.50
2010,07,10,00,08,15.50
2010,07,10,00,09,15.50
2010,07,10,00,10,15.50
2010,07,10,00,11,15.40
2010,07,10,00,12,15.40
2010,07,10,00,13,15.40
2010,07,10,00,14,15.40
2010,07,10,00,15,15.40
2010,07,10,00,16,15.30
2010,07,10,00,17,15.30
2010,07,10,00,18,15.30
2010,07,10,00,19,15.30
2010,07,10,00,20,15.30
2010,07,10,00,21,15.30
2010,07,10,00,22,15.30
2010,07,10,00,23,15.20
2010,07,10,00,24,15.20
2010,07,10,00,25,15.20
2010,07,10,00,26,15.10
2010,07,10,00,27,15.10
2010,07,10,00,28,15.10
2010,07,10,00,29,15.10
2010,07,10,00,30,15.10
2010,07,10,00,31,15.00
2010,07,10,00,32,15.00
2010,07,10,00,33,15.00
2010,07,10,00,34,14.90
2010,07,10,00,35,14.90
2010,07,10,00,36,14.90
2010,07,10,00,37,14.90
2010,07,10,00,38,14.90
2010,07,10,00,39,14.90
2010,07,10,00,40,14.80
2010,07,10,00,41,14.80
2010,07,10,00,42,14.80
2010,07,10,00,43,14.80
2010,07,10,00,44,14.80
2010,07,10,00,45,14.80
2010,07,10,00,46,14.80
2010,07,10,00,47,14.80
2010,07,10,00,48,14.80
2010,07,10,00,49,14.80
2010,07,10,00,50,14.70
2010,07,10,00,51,14.70
2010,07,10,00,52,14.70
2010,07,10,00,53,14.60
2010,07,10,00,54,14.60
2010,07,10,00,55,14.60
2010,07,10,00,56,14.60
2010,07,10,00,57,14.60
2010,07,10,00,58,14.60
2010,07,10,00,59,14.60
2010,07,10,01,00,14.60
2010,07,10,01,01,14.60
2010,07,10,01,02,14.50
2010,07,10,01,03,14.50
2010,07,10,01,04,14.50
2010,07,10,01,05,14.50
2010,07,10,01,06,14.50
2010,07,10,01,07,14.50
2010,07,10,01,08,14.50
2010,07,10,01,09,14.50
2010,07,10,01,10,14.50
2010,07,10,01,11,14.50
2010,07,10,01,12,14.50
2010,07,10,01,13,14.40
2010,07,10,01,14,14.40
2010,07,10,01,15,14.40
2010,07,10,01,16,14.40
2010,07,10,01,17,14.40
2010,07,10,01,18,14.40
2010,07,10,01,19,14.40
2010,07,10,01,20,14.40
2010,07,10,01,21,14.40
2010,07,10,01,22,14.40
2010,07,10,01,23,14.40
2010,07,10,01,24,14.40
2010,07,10,01,25,14.40
2010,07,10,01,26,14.40
2010,07,10,01,27,14.30
2010,07,10,01,28,14.30
2010,07,10,01,29,14.30
2010,07,10,01,30,14.30
2010,07,10,01,31,14.30
2010,07,10,01,32,14.30
2010,07,10,01,33,14.30
2010,07,10,01,34,14.30
2010,07,10,01,35,14.30
2010,07,10,01,36,14.30
2010,07,10,01,37,14.30
2010,07,10,01,38,14.20
2010,07,10,01,39,14.20
2010,07,10,01,40,14.20
2010,07,10,01,41,14.20
2010,07,10,01,42,14.20
2010,07,10,01,43,14.20
2010,07,10,01,44,14.20
2010,07,10,01,45,14.20
2010,07,10,01,46,14.20
2010,07,10,01,47,14.20
2010,07,10,01,48,14.20
2010,07,10,01,49,14.20
2010,07,10,01,50,14.20
2010,07,10,01,51,14.20
2010,07,10,01,52,14.20
2010,07,10,01,53,14.20
2010,07,10,01,54,14.20
2010,07,10,01,55,14.20
2010,07,10,01,56,14.20
2010,07,10,01,57,14.20
2010,07,10,01,58,14.20
2010,07,10,01,59,14.20
2010,07,10,02,00,14.20
2010,07,10,02,01,14.20
2010,07,10,02,02,14.20
2010,07,10,02,03,14.20
2010,07,10,02,04,14.20
2010,07,10,02,05,14.20
2010,07,10,02,06,14.30
2010,07,10,02,07,14.30
2010,07,10,02,08,14.30
2010,07,10,02,09,14.30
2010,07,10,02,10,14.30
2010,07,10,02,11,14.30
2010,07,10,02,12,14.30
2010,07,10,02,13,14.30
2010,07,10,02,14,14.30
2010,07,10,02,15,14.30
2010,07,10,02,16,14.30
2010,07,10,02,17,14.30
2010,07,10,02,18,14.30
2010,07,10,02,19,14.30
2010,07,10,02,20,14.30
2010,07,10,02,21,14.30
2010,07,10,02,22,14.30
2010,07,10,02,23,14.30
2010,07,10,02,24,14.30
2010,07,10,02,25,14.30
2010,07,10,02,26,14.30
2010,07,10,02,27,14.30
2010,07,10,02,28,14.40
2010,07,10,02,29,14.40
2010,07,10,02,30,14.40
2010,07,10,02,31,14.40
2010,07,10,02,32,14.40
2010,07,10,02,33,14.40
2010,07,10,02,34,14.40
2010,07,10,02,35,14.40
2010,07,10,02,36,14.40
2010,07,10,02,37,14.40
2010,07,10,02,38,14.40
2010,07,10,02,39,14.40
2010,07,10,02,40,14.40
2010,07,10,02,41,14.40
2010,07,10,02,42,14.40
2010,07,10,02,43,14.40
2010,07,10,02,44,14.40
2010,07,10,02,45,14.40
2010,07,10,02,46,14.40
2010,07,10,02,47,14.40
2010,07,10,02,48,14.40
2010,07,10,02,49,14.40
2010,07,10,02,50,14.40
2010,07,10,02,51,14.40
2010,07,10,02,52,14.40
2010,07,10,02,53,14.40
2010,07,10,02,54,14.40
2010,07,10,02,55,14.40
2010,07,10,02,56,14.40
2010,07,10,02,57,14.40
2010,07,10,02,58,14.40
2010,07,10,02,59,14.40
2010,07,10,03,00,14.40
2010,07,10,03,01,14.40
2010,07,10,03,02,14.40
2010,07,10,03,03,14.40
2010,07,10,03,04,14.40
2010,07,10,03,05,14.40
2010,07,10,03,06,14.40
2010,07,10,03,07,14.40
2010,07,10,03,08,14.40
2010,07,10,03,09,14.40
2010,07,10,03,10,14.40
2010,07,10,03,11,14.40
2010,07,10,03,12,14.40
2010,07,10,03,13,14.40
2010,07,10,03,14,14.40
2010,07,10,03,15,14.40
2010,07,10,03,16,14.40
2010,07,10,03,17,14.40
2010,07,10,03,18,14.40
2010,07,10,03,19,14.40
2010,07,10,03,20,14.40
2010,07,10,03,21,14.40
2010,07,10,03,22,14.40
2010,07,10,03,23,14.40
2010,07,10,03,24,14.40
2010,07,10,03,25,14.40
2010,07,10,03,26,14.40
2010,07,10,03,27,14.40
2010,07,10,03,28,14.40
2010,07,10,03,29,14.40
2010,07,10,03,30,14.40
2010,07,10,03,31,14.40
2010,07,10,03,32,14.40
2010,07,10,03,33,14.40
2010,07,10,03,34,14.40
2010,07,10,03,35,14.40
2010,07,10,03,36,14.40
2010,07,10,03,37,14.40
2010,07,10,03,38,14.40
2010,07,10,03,39,14.40
2010,07,10,03,40,14.40
2010,07,10,03,41,14.40
2010,07,10,03,42,14.40
2010,07,10,03,43,14.40
2010,07,10,03,44,14.40
2010,07,10,03,45,14.40
2010,07,10,03,46,14.40
2010,07,10,03,47,14.40
2010,07,10,03,48,14.40
2010,07,10,03,49,14.40
2010,07,10,03,50,14.40
2010,07,10,03,51,14.40
2010,07,10,03,52,14.40
2010,07,10,03,53,14.40
2010,07,10,03,54,14.40
2010,07,10,03,55,14.40
2010,07,10,03,56,14.40
2010,07,10,03,57,14.40
2010,07,10,03,58,14.40
2010,07,10,03,59,14.40
2010,07,10,04,00,14.30
2010,07,10,04,01,14.30
2010,07,10,04,02,14.30
2010,07,10,04,03,14.30
2010,07,10,04,04,14.30
2010,07,10,04,05,14.30
2010,07,10,04,06,14.30
2010,07,10,04,07,14.30
2010,07,10,04,08,14.30
2010,07,10,04,09,14.30
2010,07,10,04,10,14.30
2010,07,10,04,11,14.30
2010,07,10,04,12,14.30
2010,07,10,04,13,14.30
2010,07,10,04,14,14.30
2010,07,10,04,15,14.30
2010,07,10,04,16,14.30
2010,07,10,04,17,14.30
2010,07,10,04,18,14.30
2010,07,10,04,19,14.30
2010,07,10,04,20,14.30
2010,07,10,04,21,14.30
2010,07,10,04,22,14.30
2010,07,10,04,23,14.30
2010,07,10,04,24,14.30
2010,07,10,04,25,14.30
2010,07,10,04,26,14.30
2010,07,10,04,27,14.30
2010,07,10,04,28,14.30
2010,07,10,04,29,14.30
2010,07,10,04,30,14.30
2010,07,10,04,31,14.30
2010,07,10,04,32,14.30
2010,07,10,04,33,14.30
2010,07,10,04,34,14.30
2010,07,10,04,35,14.30
2010,07,10,04,36,14.30
2010,07,10,04,37,14.30
2010,07,10,04,38,14.30
2010,07,10,04,39,14.30
2010,07,10,04,40,14.30
2010,07,10,04,41,14.30
2010,07,10,04,42,14.30
2010,07,10,04,43,14.30
2010,07,10,04,44,14.30
2010,07,10,04,45,14.30
2010,07,10,04,46,14.30
2010,07,10,04,47,14.30
2010,07,10,04,48,14.30
2010,07,10,04,49,14.30
2010,07,10,04,50,14.30
2010,07,10,04,51,14.30
2010,07,10,04,52,14.30
2010,07,10,04,53,14.30
2010,07,10,04,54,14.20
2010,07,10,04,55,14.20
2010,07,10,04,56,14.20
2010,07,10,04,57,14.20
2010,07,10,04,58,14.20
2010,07,10,04,59,14.20
2010,07,10,05,00,14.20
2010,07,10,05,01,14.20
2010,07,10,05,02,14.20
2010,07,10,05,03,14.20
2010,07,10,05,04,14.20
2010,07,10,05,05,14.20
2010,07,10,05,06,14.20
2010,07,10,05,07,14.20
2010,07,10,05,08,14.20
2010,07,10,05,09,14.20
2010,07,10,05,10,14.20
2010,07,10,05,11,14.20
2010,07,10,05,12,14.20
2010,07,10,05,13,14.20
2010,07,10,05,14,14.20
2010,07,10,05,15,14.20
2010,07,10,05,16,14.20
2010,07,10,05,17,14.20
2010,07,10,05,18,14.20
2010,07,10,05,19,14.20
2010,07,10,05,20,14.20
2010,07,10,05,21,14.20
2010,07,10,05,22,14.20
2010,07,10,05,23,14.20
2010,07,10,05,24,14.20
2010,07,10,05,25,14.20
2010,07,10,05,26,14.20
2010,07,10,05,27,14.20
2010,07,10,05,28,14.20
2010,07,10,05,29,14.20
2010,07,10,05,30,14.20
2010,07,10,05,31,14.20
2010,07,10,05,32,14.20
2010,07,10,05,33,14.20
2010,07,10,05,34,14.20
2010,07,10,05,35,14.20
2010,07,10,05,36,14.20
2010,07,10,05,37,14.20
2010,07,10,05,38,14.20
2010,07,10,05,39,14.20
2010,07,10,05,40,14.20
2010,07,10,05,41,14.20
2010,07,10,05,42,14.10
2010,07,10,05,43,14.10
2010,07,10,05,44,14.10
2010,07,10,05,45,14.10
2010,07,10,05,46,14.10
2010,07,10,05,47,14.10
2010,07,10,05,48,14.10
2010,07,10,05,49,14.10
2010,07,10,05,50,14.10
2010,07,10,05,51,14.10
2010,07,10,05,52,14.00
2010,07,10,05,53,14.00
2010,07,10,05,54,14.00
2010,07,10,05,55,14.00
2010,07,10,05,56,14.00
2010,07,10,05,57,14.00
2010,07,10,05,58,14.00
2010,07,10,05,59,14.00
2010,07,10,06,00,14.00
2010,07,10,06,01,14.00
2010,07,10,06,02,14.00
2010,07,10,06,03,14.00
2010,07,10,06,04,14.00
2010,07,10,06,05,14.00
2010,07,10,06,06,14.00
2010,07,10,06,07,14.00
2010,07,10,06,08,14.00
2010,07,10,06,09,14.00
2010,07,10,06,10,14.00
2010,07,10,06,11,14.00
2010,07,10,06,12,14.10
2010,07,10,06,13,14.10
2010,07,10,06,14,14.10
2010,07,10,06,15,14.20
2010,07,10,06,16,14.20
2010,07,10,06,17,14.20
2010,07,10,06,18,14.20
2010,07,10,06,19,14.20
2010,07,10,06,20,14.20
2010,07,10,06,21,14.20
2010,07,10,06,22,14.20
2010,07,10,06,23,14.20
2010,07,10,06,24,14.20
2010,07,10,06,25,14.20
2010,07,10,06,26,14.20
2010,07,10,06,27,14.20
2010,07,10,06,28,14.20
2010,07,10,06,29,14.20
2010,07,10,06,30,14.20
2010,07,10,06,31,14.20
2010,07,10,06,32,14.20
2010,07,10,06,33,14.30
2010,07,10,06,34,14.30
2010,07,10,06,35,14.30
2010,07,10,06,36,14.30
2010,07,10,06,37,14.30
2010,07,10,06,38,14.30
2010,07,10,06,39,14.40
2010,07,10,06,40,14.40
2010,07,10,06,41,14.40
2010,07,10,06,42,14.40
2010,07,10,06,43,14.40
2010,07,10,06,44,14.50
2010,07,10,06,45,14.50
2010,07,10,06,46,14.50
2010,07,10,06,47,14.50
2010,07,10,06,48,14.50
2010,07,10,06,49,14.50
2010,07,10,06,50,14.60
2010,07,10,06,51,14.60
2010,07,10,06,52,14.60
2010,07,10,06,53,14.60
2010,07,10,06,54,14.60
2010,07,10,06,55,14.60
2010,07,10,06,56,14.60
2010,07,10,06,57,14.70
2010,07,10,06,58,14.70
2010,07,10,06,59,14.70
2010,07,10,07,00,14.70
2010,07,10,07,01,14.70
2010,07,10,07,02,14.70
2010,07,10,07,03,14.80
2010,07,10,07,04,14.80
2010,07,10,07,05,14.80
2010,07,10,07,06,14.80
2010,07,10,07,07,14.80
2010,07,10,07,08,14.80
2010,07,10,07,09,14.80
2010,07,10,07,10,14.80
2010,07,10,07,11,14.80
2010,07,10,07,12,14.80
2010,07,10,07,13,14.80
2010,07,10,07,14,14.80
2010,07,10,07,15,14.90
2010,07,10,07,16,14.90
2010,07,10,07,17,14.90
2010,07,10,07,18,15.00
2010,07,10,07,19,15.00
2010,07,10,07,20,15.00
2010,07,10,07,21,15.10
2010,07,10,07,22,15.10
2010,07,10,07,23,15.10
2010,07,10,07,24,15.10
2010,07,10,07,25,15.10
2010,07,10,07,26,15.20
2010,07,10,07,27,15.20
2010,07,10,07,28,15.20
2010,07,10,07,29,15.30
2010,07,10,07,30,15.30
2010,07,10,07,31,15.30
2010,07,10,07,32,15.30
2010,07,10,07,33,15.30
2010,07,10,07,34,15.30
2010,07,10,07,35,15.30
2010,07,10,07,36,15.30
2010,07,10,07,37,15.30
2010,07,10,07,38,15.30
2010,07,10,07,39,15.30
2010,07,10,07,40,15.30
2010,07,10,07,41,15.30
2010,07,10,07,42,15.40
2010,07,10,07,43,15.40
2010,07,10,07,44,15.50
2010,07,10,07,45,15.50
2010,07,10,07,46,15.50
2010,07,10,07,47,15.50
2010,07,10,07,48,15.50
2010,07,10,07,49,15.50
2010,07,10,07,50,15.60
2010,07,10,07,51,15.50
2010,07,10,07,52,15.50
2010,07,10,07,53,15.50
2010,07,10,07,54,15.50
2010,07,10,07,55,15.50
2010,07,10,07,56,15.50
2010,07,10,07,57,15.50
2010,07,10,07,58,15.50
2010,07,10,07,59,15.60
2010,07,10,08,00,15.60
2010,07,10,08,01,15.60
2010,07,10,08,02,15.60
2010,07,10,08,03,15.60
2010,07,10,08,04,15.60
2010,07,10,08,05,15.70
2010,07,10,08,06,15.70
2010,07,10,08,07,15.70
2010,07,10,08,08,15.70
2010,07,10,08,09,15.70
2010,07,10,08,10,15.70
2010,07,10,08,11,15.80
2010,07,10,08,12,15.80
2010,07,10,08,13,15.80
2010,07,10,08,14,15.80
2010,07,10,08,15,15.80
2010,07,10,08,16,15.90
2010,07,10,08,17,15.90
2010,07,10,08,18,15.90
2010,07,10,08,19,16.00
2010,07,10,08,20,16.10
2010,07,10,08,21,16.10
2010,07,10,08,22,16.10
2010,07,10,08,23,16.10
2010,07,10,08,24,16.10
2010,07,10,08,25,16.10
2010,07,10,08,26,16.10
2010,07,10,08,27,16.10
2010,07,10,08,28,16.20
2010,07,10,08,29,16.20
2010,07,10,08,30,16.20
2010,07,10,08,31,16.20
2010,07,10,08,32,16.20
2010,07,10,08,33,16.30
2010,07,10,08,34,16.30
2010,07,10,08,35,16.40
2010,07,10,08,36,16.40
2010,07,10,08,37,16.40
2010,07,10,08,38,16.40
2010,07,10,08,39,16.50
2010,07,10,08,40,16.60
2010,07,10,08,41,16.60
2010,07,10,08,42,16.60
2010,07,10,08,43,16.60
2010,07,10,08,44,16.70
2010,07,10,08,45,16.70
2010,07,10,08,46,16.80
2010,07,10,08,47,16.80
2010,07,10,08,48,16.90
2010,07,10,08,49,16.90
2010,07,10,08,50,17.00
2010,07,10,08,51,17.00
2010,07,10,08,52,17.00
2010,07,10,08,53,17.10
2010,07,10,08,54,17.10
2010,07,10,08,55,17.10
2010,07,10,08,56,17.10
2010,07,10,08,57,17.10
2010,07,10,08,58,17.10
2010,07,10,08,59,17.10
2010,07,10,09,00,17.10
2010,07,10,09,01,17.10
2010,07,10,09,02,17.10
2010,07,10,09,03,17.20
2010,07,10,09,04,17.30
2010,07,10,09,05,17.30
2010,07,10,09,06,17.30
2010,07,10,09,07,17.30
2010,07,10,09,08,17.30
2010,07,10,09,09,17.40
2010,07,10,09,10,17.50
2010,07,10,09,11,17.50
2010,07,10,09,12,17.60
2010,07,10,09,13,17.70
2010,07,10,09,14,17.70
2010,07,10,09,15,17.80
2010,07,10,09,16,17.80
2010,07,10,09,17,17.80
2010,07,10,09,18,17.80
2010,07,10,09,19,17.80
2010,07,10,09,20,17.70
2010,07,10,09,21,17.80
2010,07,10,09,22,17.80
2010,07,10,09,23,17.90
2010,07,10,09,24,18.00
2010,07,10,09,25,18.10
2010,07,10,09,26,18.20
2010,07,10,09,27,18.20
2010,07,10,09,28,18.20
2010,07,10,09,29,18.20
2010,07,10,09,30,18.20
2010,07,10,09,31,18.30
2010,07,10,09,32,18.30
2010,07,10,09,33,18.40
2010,07,10,09,34,18.40
2010,07,10,09,35,18.40
2010,07,10,09,36,18.40
2010,07,10,09,37,18.40
2010,07,10,09,38,18.50
2010,07,10,09,39,18.50
2010,07,10,09,40,18.60
2010,07,10,09,41,18.60
2010,07,10,09,42,18.70
2010,07,10,09,43,18.80
2010,07,10,09,44,18.80
2010,07,10,09,45,18.90
2010,07,10,09,46,18.90
2010,07,10,09,47,19.00
2010,07,10,09,48,19.10
2010,07,10,09,49,19.10
2010,07,10,09,50,19.10
2010,07,10,09,51,19.10
2010,07,10,09,52,19.10
2010,07,10,09,53,19.10
2010,07,10,09,54,19.10
2010,07,10,09,55,19.10
2010,07,10,09,56,19.10
2010,07,10,09,57,19.10
2010,07,10,09,58,19.20
2010,07,10,09,59,19.20
2010,07,10,10,00,19.20
2010,07,10,10,01,19.20
2010,07,10,10,02,19.30
2010,07,10,10,03,19.40
2010,07,10,10,04,19.50
2010,07,10,10,05,19.60
2010,07,10,10,06,19.70
2010,07,10,10,07,19.80
2010,07,10,10,08,19.90
2010,07,10,10,09,20.00
2010,07,10,10,10,20.10
2010,07,10,10,11,20.10
2010,07,10,10,12,20.10
2010,07,10,10,13,20.00
2010,07,10,10,14,20.00
2010,07,10,10,15,20.10
2010,07,10,10,16,20.00
2010,07,10,10,17,19.90
2010,07,10,10,18,19.90
2010,07,10,10,19,19.90
2010,07,10,10,20,19.90
2010,07,10,10,21,19.90
2010,07,10,10,22,20.00
2010,07,10,10,23,20.10
2010,07,10,10,24,20.10
2010,07,10,10,25,20.20
2010,07,10,10,26,20.20
2010,07,10,10,27,20.10
2010,07,10,10,28,20.00
2010,07,10,10,29,20.00
2010,07,10,10,30,20.10
2010,07,10,10,31,20.20
2010,07,10,10,32,20.20
2010,07,10,10,33,20.20
2010,07,10,10,34,20.20
2010,07,10,10,35,20.30
2010,07,10,10,36,20.30
2010,07,10,10,37,20.30
2010,07,10,10,38,20.40
2010,07,10,10,39,20.40
2010,07,10,10,40,20.40
2010,07,10,10,41,20.40
2010,07,10,10,42,20.50
2010,07,10,10,43,20.60
2010,07,10,10,44,20.70
2010,07,10,10,45,20.70
2010,07,10,10,46,20.80
2010,07,10,10,47,20.90
2010,07,10,10,48,21.00
2010,07,10,10,49,21.10
2010,07,10,10,50,21.10
2010,07,10,10,51,21.20
2010,07,10,10,52,21.20
2010,07,10,10,53,21.20
2010,07,10,10,54,21.30
2010,07,10,10,55,21.30
2010,07,10,10,56,21.30
2010,07,10,10,57,21.40
2010,07,10,10,58,21.40
2010,07,10,10,59,21.40
2010,07,10,11,00,21.50
2010,07,10,11,01,21.60
2010,07,10,11,02,21.60
2010,07,10,11,03,21.60
2010,07,10,11,04,21.80
2010,07,10,11,05,21.90
2010,07,10,11,06,21.90
2010,07,10,11,07,22.00
2010,07,10,11,08,22.00
2010,07,10,11,09,21.90
2010,07,10,11,10,21.90
2010,07,10,11,11,21.90
2010,07,10,11,12,21.90
2010,07,10,11,13,22.00
2010,07,10,11,14,22.00
2010,07,10,11,15,22.00
2010,07,10,11,16,22.10
2010,07,10,11,17,22.20
2010,07,10,11,18,22.30
2010,07,10,11,19,22.30
2010,07,10,11,20,22.50
2010,07,10,11,21,22.60
2010,07,10,11,22,22.60
2010,07,10,11,23,22.70
2010,07,10,11,24,22.80
2010,07,10,11,25,22.90
2010,07,10,11,26,22.90
2010,07,10,11,27,22.80
2010,07,10,11,28,22.80
2010,07,10,11,29,22.80
2010,07,10,11,30,22.80
2010,07,10,11,31,22.80
2010,07,10,11,32,22.80
2010,07,10,11,33,22.70
2010,07,10,11,34,22.70
2010,07,10,11,35,22.70
2010,07,10,11,36,22.70
2010,07,10,11,37,22.80
2010,07,10,11,38,22.70
2010,07,10,11,39,22.60
2010,07,10,11,40,22.60
2010,07,10,11,41,22.70
2010,07,10,11,42,22.70
2010,07,10,11,43,22.80
2010,07,10,11,44,22.90
2010,07,10,11,45,22.90
2010,07,10,11,46,22.90
2010,07,10,11,47,22.90
2010,07,10,11,48,22.90
2010,07,10,11,49,22.90
2010,07,10,11,50,22.90
2010,07,10,11,51,23.10
2010,07,10,11,52,23.20
2010,07,10,11,53,23.10
2010,07,10,11,54,23.10
2010,07,10,11,55,23.10
2010,07,10,11,56,23.20
2010,07,10,11,57,23.30
2010,07,10,11,58,23.40
2010,07,10,11,59,23.40
2010,07,10,12,00,23.40
2010,07,10,12,01,23.50
2010,07,10,12,02,23.40
2010,07,10,12,03,23.50
2010,07,10,12,04,23.60
2010,07,10,12,05,23.70
2010,07,10,12,06,23.50
2010,07,10,12,07,23.30
2010,07,10,12,08,23.30
2010,07,10,12,09,23.30
2010,07,10,12,10,23.40
2010,07,10,12,11,23.40
2010,07,10,12,12,23.50
2010,07,10,12,13,23.60
2010,07,10,12,14,23.60
2010,07,10,12,15,23.60
2010,07,10,12,16,23.50
2010,07,10,12,17,23.40
2010,07,10,12,18,23.30
2010,07,10,12,19,23.30
2010,07,10,12,20,23.30
2010,07,10,12,21,23.30
2010,07,10,12,22,23.30
2010,07,10,12,23,23.30
2010,07,10,12,24,23.30
2010,07,10,12,25,23.30
2010,07,10,12,26,23.30
2010,07,10,12,27,23.30
2010,07,10,12,28,23.30
2010,07,10,12,29,23.30
2010,07,10,12,30,23.30
2010,07,10,12,31,23.40
2010,07,10,12,32,23.50
2010,07,10,12,33,23.50
2010,07,10,12,34,23.40
2010,07,10,12,35,23.30
2010,07,10,12,36,23.30
2010,07,10,12,37,23.20
2010,07,10,12,38,23.10
2010,07,10,12,39,23.10
2010,07,10,12,40,23.10
2010,07,10,12,41,23.10
2010,07,10,12,42,22.90
2010,07,10,12,43,22.80
2010,07,10,12,44,22.60
2010,07,10,12,45,22.60
2010,07,10,12,46,22.60
2010,07,10,12,47,22.60
2010,07,10,12,48,22.60
2010,07,10,12,49,22.70
2010,07,10,12,50,22.80
2010,07,10,12,51,22.90
2010,07,10,12,52,23.00
2010,07,10,12,53,23.10
2010,07,10,12,54,23.20
2010,07,10,12,55,23.30
2010,07,10,12,56,23.40
2010,07,10,12,57,23.50
2010,07,10,12,58,23.60
2010,07,10,12,59,23.70
2010,07,10,13,00,23.80
2010,07,10,13,01,23.90
2010,07,10,13,02,23.80
2010,07,10,13,03,23.70
2010,07,10,13,04,23.50
2010,07,10,13,05,23.30
2010,07,10,13,06,23.30
2010,07,10,13,07,23.30
2010,07,10,13,08,23.30
2010,07,10,13,09,23.30
2010,07,10,13,10,23.30
2010,07,10,13,11,23.30
2010,07,10,13,12,23.30
2010,07,10,13,13,23.30
2010,07,10,13,14,23.30
2010,07,10,13,15,23.30
2010,07,10,13,16,23.30
2010,07,10,13,17,23.20
2010,07,10,13,18,23.10
2010,07,10,13,19,23.00
2010,07,10,13,20,22.90
2010,07,10,13,21,23.00
2010,07,10,13,22,23.10
2010,07,10,13,23,23.10
2010,07,10,13,24,23.20
2010,07,10,13,25,23.30
2010,07,10,13,26,23.40
2010,07,10,13,27,23.60
2010,07,10,13,28,23.70
2010,07,10,13,29,23.70
2010,07,10,13,30,23.70
2010,07,10,13,31,23.80
2010,07,10,13,32,23.80
2010,07,10,13,33,23.90
2010,07,10,13,34,24.00
2010,07,10,13,35,24.10
2010,07,10,13,36,24.10
2010,07,10,13,37,24.10
2010,07,10,13,38,24.10
2010,07,10,13,39,24.20
2010,07,10,13,40,24.30
2010,07,10,13,41,24.30
2010,07,10,13,42,24.40
2010,07,10,13,43,24.40
2010,07,10,13,44,24.30
2010,07,10,13,45,24.20
2010,07,10,13,46,24.10
2010,07,10,13,47,24.00
2010,07,10,13,48,23.80
2010,07,10,13,49,23.80
2010,07,10,13,50,23.70
2010,07,10,13,51,23.70
2010,07,10,13,52,23.70
2010,07,10,13,53,23.70
2010,07,10,13,54,23.60
2010,07,10,13,55,23.60
2010,07,10,13,56,23.50
2010,07,10,13,57,23.40
2010,07,10,13,58,23.40
2010,07,10,13,59,23.40
2010,07,10,14,00,23.30
2010,07,10,14,01,23.20
2010,07,10,14,02,23.10
2010,07,10,14,03,23.00
2010,07,10,14,04,22.90
2010,07,10,14,05,23.00
2010,07,10,14,06,23.10
2010,07,10,14,07,23.30
2010,07,10,14,08,23.30
2010,07,10,14,09,23.40
2010,07,10,14,10,23.60
2010,07,10,14,11,23.70
2010,07,10,14,12,23.80
2010,07,10,14,13,23.90
2010,07,10,14,14,24.00
2010,07,10,14,15,24.10
2010,07,10,14,16,24.10
2010,07,10,14,17,24.00
2010,07,10,14,18,23.90
2010,07,10,14,19,23.80
2010,07,10,14,20,23.90
2010,07,10,14,21,23.90
2010,07,10,14,22,23.90
2010,07,10,14,23,23.80
2010,07,10,14,24,23.70
2010,07,10,14,25,23.60
2010,07,10,14,26,23.40
2010,07,10,14,27,23.30
2010,07,10,14,28,23.30
2010,07,10,14,29,23.30
2010,07,10,14,30,23.30
2010,07,10,14,31,23.10
2010,07,10,14,32,23.10
2010,07,10,14,33,23.10
2010,07,10,14,34,23.00
2010,07,10,14,35,22.90
2010,07,10,14,36,22.90
2010,07,10,14,37,22.80
2010,07,10,14,38,22.80
2010,07,10,14,39,22.80
2010,07,10,14,40,22.60
2010,07,10,14,41,22.40
2010,07,10,14,42,22.30
2010,07,10,14,43,22.30
2010,07,10,14,44,22.30
2010,07,10,14,45,22.20
2010,07,10,14,46,22.10
2010,07,10,14,47,22.10
2010,07,10,14,48,22.00
2010,07,10,14,49,22.10
2010,07,10,14,50,22.10
2010,07,10,14,51,22.30
2010,07,10,14,52,22.20
2010,07,10,14,53,22.20
2010,07,10,14,54,22.30
2010,07,10,14,55,22.30
2010,07,10,14,56,22.40
2010,07,10,14,57,22.40
2010,07,10,14,58,22.40
2010,07,10,14,59,22.30
2010,07,10,15,00,22.20
2010,07,10,15,01,22.10
2010,07,10,15,02,22.10
2010,07,10,15,03,22.20
2010,07,10,15,04,22.30
2010,07,10,15,05,22.40
2010,07,10,15,06,22.50
2010,07,10,15,07,22.60
2010,07,10,15,08,22.80
2010,07,10,15,09,22.90
2010,07,10,15,10,23.10
2010,07,10,15,11,23.20
2010,07,10,15,12,23.30
2010,07,10,15,13,23.30
2010,07,10,15,14,23.30
2010,07,10,15,15,23.30
2010,07,10,15,16,23.40
2010,07,10,15,17,23.50
2010,07,10,15,18,23.60
2010,07,10,15,19,23.60
2010,07,10,15,20,23.60
2010,07,10,15,21,23.70
2010,07,10,15,22,23.70
2010,07,10,15,23,23.70
2010,07,10,15,24,23.70
2010,07,10,15,25,23.50
2010,07,10,15,26,23.40
2010,07,10,15,27,23.40
2010,07,10,15,28,23.50
2010,07,10,15,29,23.60
2010,07,10,15,30,23.70
2010,07,10,15,31,23.70
2010,07,10,15,32,23.80
2010,07,10,15,33,23.90
2010,07,10,15,34,24.00
2010,07,10,15,35,24.10
2010,07,10,15,36,24.10
2010,07,10,15,37,24.10
2010,07,10,15,38,24.20
2010,07,10,15,39,24.30
2010,07,10,15,40,24.40
2010,07,10,15,41,24.40
2010,07,10,15,42,24.40
2010,07,10,15,43,24.40
2010,07,10,15,44,24.30
2010,07,10,15,45,24.30
2010,07,10,15,46,24.30
2010,07,10,15,47,24.20
2010,07,10,15,48,24.20
2010,07,10,15,49,24.30
2010,07,10,15,50,24.30
2010,07,10,15,51,24.20
2010,07,10,15,52,24.30
2010,07,10,15,53,24.40
2010,07,10,15,54,24.50
2010,07,10,15,55,24.60
2010,07,10,15,56,24.60
2010,07,10,15,57,24.70
2010,07,10,15,58,24.80
2010,07,10,15,59,24.80
2010,07,10,16,00,24.90
2010,07,10,16,01,24.90
2010,07,10,16,02,24.70
2010,07,10,16,03,24.50
2010,07,10,16,04,24.40
2010,07,10,16,05,24.40
2010,07,10,16,06,24.40
2010,07,10,16,07,24.30
2010,07,10,16,08,24.20
2010,07,10,16,09,24.20
2010,07,10,16,10,24.10
2010,07,10,16,11,24.00
2010,07,10,16,12,23.90
2010,07,10,16,13,24.10
2010,07,10,16,14,24.10
2010,07,10,16,15,24.10
2010,07,10,16,16,24.10
2010,07,10,16,17,24.20
2010,07,10,16,18,24.20
2010,07,10,16,19,24.20
2010,07,10,16,20,24.30
2010,07,10,16,21,24.30
2010,07,10,16,22,24.20
2010,07,10,16,23,24.20
2010,07,10,16,24,24.20
2010,07,10,16,25,24.20
2010,07,10,16,26,24.10
2010,07,10,16,27,24.00
2010,07,10,16,28,23.90
2010,07,10,16,29,23.90
2010,07,10,16,30,23.90
2010,07,10,16,31,24.00
2010,07,10,16,32,24.10
2010,07,10,16,33,24.10
2010,07,10,16,34,24.10
2010,07,10,16,35,24.10
2010,07,10,16,36,24.20
2010,07,10,16,37,24.10
2010,07,10,16,38,24.10
2010,07,10,16,39,24.10
2010,07,10,16,40,24.10
2010,07,10,16,41,24.10
2010,07,10,16,42,24.10
2010,07,10,16,43,24.10
2010,07,10,16,44,24.10
2010,07,10,16,45,24.10
2010,07,10,16,46,24.10
2010,07,10,16,47,24.10
2010,07,10,16,48,24.10
2010,07,10,16,49,24.10
2010,07,10,16,50,24.10
2010,07,10,16,51,24.00
2010,07,10,16,52,24.00
2010,07,10,16,53,24.10
2010,07,10,16,54,24.10
2010,07,10,16,55,24.10
2010,07,10,16,56,24.10
2010,07,10,16,57,24.20
2010,07,10,16,58,24.20
2010,07,10,16,59,24.20
2010,07,10,17,00,24.10
2010,07,10,17,01,24.00
2010,07,10,17,02,23.80
2010,07,10,17,03,23.70
2010,07,10,17,04,23.70
2010,07,10,17,05,23.70
2010,07,10,17,06,23.60
2010,07,10,17,07,23.60
2010,07,10,17,08,23.40
2010,07,10,17,09,23.30
2010,07,10,17,10,23.30
2010,07,10,17,11,23.30
2010,07,10,17,12,23.30
2010,07,10,17,13,23.30
2010,07,10,17,14,23.30
2010,07,10,17,15,23.30
2010,07,10,17,16,23.30
2010,07,10,17,17,23.20
2010,07,10,17,18,23.20
2010,07,10,17,19,23.20